ECHOSTAR 21

Last updated on Tue Oct 28 2025 00:02:50 GMT+0000 (Coordinated Universal Time)

1 42749U 17032A 25300.39053073 .00000076 00000+0 00000+0 0 9990 2 42749 1.8714 340.8087 0002361 225.0799 340.9780 1.00271937 30762
UTC large
Height (km)
Speed (km/s)
/
Latitude / Longitude
Inclination (degrees)
Orbital Period (minutes)
Azimuth
Elevation
Range (km)
Doppler Factor

Next 0 passes for location: London (51.5072 / 0.1276)

Sorry there are no passes over London.